datetime,total release
1984-03-20,1.0
1984-03-21,1.0
1984-03-22,1.0
1984-03-23,0.0
1984-03-24,1.0
1984-03-25,0.0
1984-03-26,1.0
1984-03-27,0.0
1984-03-28,1.0
1984-03-29,
1984-03-30,0.0
1984-03-31,
1984-04-01,1.0
1984-04-02,
1984-04-03,1.0
1984-04-04,
1984-04-05,1.0
1984-04-06,
1984-04-07,1.0
1984-04-08,
1984-04-09,1.0
1984-04-10,1068.0
1984-04-11,1475.0
1984-04-12,1350.0
1984-04-13,1176.0
1984-04-14,1110.0
1984-04-15,1569.0
1984-04-16,1924.0
1984-04-17,2715.0
1984-04-18,3116.0
1984-04-19,2744.0
1984-04-20,3119.0
1984-04-21,2233.0
1984-04-22,2174.0
1984-04-23,1911.0
1984-04-24,1549.0
1984-04-25,1499.0
1984-04-26,2434.0
1984-04-27,2268.0
1984-04-28,1571.0
1984-04-29,933.0
1984-04-30,925.0
1984-05-01,940.0
1984-05-02,1175.0
1984-05-03,1175.0
1984-05-04,1175.0
1984-05-05,1390.0
1984-05-06,2358.0
1984-05-07,2787.0
1984-05-08,2419.0
1984-05-09,2375.0
1984-05-10,2650.0
1984-05-11,3199.0
1984-05-12,3220.0
1984-05-13,3269.0
1984-05-14,3350.0
1984-05-15,3340.0
1984-05-16,3198.0
1984-05-17,3525.0
1984-05-18,3574.0
1984-05-19,3592.0
1984-05-20,3614.0
1984-05-21,3619.0
1984-05-22,3643.0
1984-05-23,3679.0
1984-05-24,3628.0
1984-05-25,3749.0
1984-05-26,3627.0
1984-05-27,3820.0
1984-05-28,3825.0
1984-05-29,3811.0
1984-05-30,3621.0
1984-05-31,3641.0
1984-06-01,3472.0
1984-06-02,3321.0
1984-06-03,3199.0
1984-06-04,2746.0
1984-06-05,2019.0
1984-06-06,1637.0
1984-06-07,1732.0
1984-06-08,1799.0
1984-06-09,1983.0
1984-06-10,1531.0
1984-06-11,1499.0
1984-06-12,1214.0
1984-06-13,967.0
1984-06-14,1156.0
1984-06-15,1392.0
1984-06-16,1400.0
1984-06-17,1400.0
1984-06-18,1400.0
1984-06-19,1205.0
1984-06-20,1005.0
1984-06-21,1000.0
1984-06-22,1000.0
1984-06-23,1000.0
1984-06-24,1000.0
1984-06-25,1000.0
1984-06-26,756.0
1984-06-27,750.0
1984-06-28,750.0
1984-06-29,891.0
1984-06-30,750.0
1984-07-01,656.0
1984-07-02,718.0
1984-07-03,530.0
1984-07-04,412.0
1984-07-05,274.0
1984-07-06,174.0
1984-07-07,111.0
1984-07-08,64.0
1984-07-09,64.0
1984-07-10,64.0
1984-07-11,64.0
1984-07-12,64.0
1984-07-13,64.0
1984-07-14,63.0
1984-07-15,63.0
1984-07-16,63.0
1984-07-17,63.0
1984-07-18,54.0
1984-07-19,63.0
1984-07-20,63.0
1984-07-21,63.0
1984-07-22,63.0
1984-07-23,63.0
1984-07-24,63.0
1984-07-25,63.0
1984-07-26,90.0
1984-07-27,63.0
1984-07-28,63.0
1984-07-29,63.0
1984-07-30,63.0
1984-07-31,63.0
1984-08-01,63.0
1984-08-02,63.0
1984-08-03,194.0
1984-08-04,199.0
1984-08-05,199.0
1984-08-06,197.0
1984-08-07,195.0
1984-08-08,194.0
1984-08-09,194.0
1984-08-10,194.0
1984-08-11,194.0
1984-08-12,194.0
1984-08-13,194.0
1984-08-14,194.0
1984-08-15,194.0
1984-08-16,194.0
1984-08-17,371.0
1984-08-18,443.0
1984-08-19,449.0
1984-08-20,675.0
1984-08-21,675.0
1984-08-22,675.0
1984-08-23,662.0
1984-08-24,649.0
1984-08-25,300.0
1984-08-26,94.0
1984-08-27,290.0
1984-08-28,299.0
1984-08-29,299.0
1984-08-30,165.0
1984-08-31,77.0
1984-09-01,72.0
1984-09-02,72.0
1984-09-03,72.0
1984-09-04,72.0
1984-09-05,72.0
1984-09-06,73.0
1984-09-07,216.0
1984-09-08,237.0
1984-09-09,237.0
1984-09-10,86.0
1984-09-11,73.0
1984-09-12,73.0
1984-09-13,73.0
1984-09-14,64.0
1984-09-15,67.0
1984-09-16,67.0
1984-09-17,67.0
1984-09-18,67.0
1984-09-19,64.0
1984-09-20,64.0
1984-09-21,64.0
1984-09-22,64.0
1984-09-23,64.0
1984-09-24,64.0
1984-09-25,64.0
1984-09-26,64.0
1984-09-27,64.0
1984-09-28,64.0
1984-09-29,64.0
1984-09-30,64.0
1984-10-01,64.0
1984-10-02,64.0
1984-10-03,64.0
1984-10-04,64.0
1984-10-05,64.0
1984-10-06,75.0
1984-10-07,75.0
1984-10-08,75.0
1984-10-09,75.0
1984-10-10,64.0
1984-10-11,64.0
1984-10-12,64.0
1984-10-13,64.0
1984-10-14,64.0
1984-10-15,64.0
1984-10-16,64.0
1984-10-17,64.0
1984-10-18,64.0
1984-10-19,64.0
1984-10-20,64.0
1984-10-21,64.0
1984-10-22,64.0
1984-10-23,64.0
1984-10-24,64.0
1984-10-25,64.0
1984-10-26,64.0
1984-10-27,64.0
1984-10-28,64.0
1984-10-29,64.0
1984-10-30,64.0
1984-10-31,64.0
1984-11-01,64.0
1984-11-02,64.0
1984-11-03,64.0
1984-11-04,64.0
1984-11-05,64.0
1984-11-06,64.0
1984-11-07,64.0
1984-11-08,64.0
1984-11-09,64.0
1984-11-10,64.0
1984-11-11,64.0252075
1984-11-12,64.0252075
1984-11-13,64.0
1984-11-14,64.0
1984-11-15,64.0
1984-11-16,64.0
1984-11-17,64.0
1984-11-18,64.0
1984-11-19,64.0
1984-11-20,64.0
1984-11-21,64.0
1984-11-22,64.0
1984-11-23,64.0
1984-11-24,64.0
1984-11-25,64.0
1984-11-26,64.0
1984-11-27,64.0
1984-11-28,64.0
1984-11-29,64.0
1984-11-30,64.0
1984-12-01,64.0
1984-12-02,64.0
1984-12-03,64.0
1984-12-04,64.0
1984-12-05,64.0
1984-12-06,64.0
1984-12-07,64.0
1984-12-08,64.0
1984-12-09,64.0
1984-12-10,64.0
1984-12-11,64.0
1984-12-12,64.0
1984-12-13,64.0
1984-12-14,64.0
1984-12-15,64.0
1984-12-16,32.0
1984-12-17,64.0
1984-12-18,64.0
1984-12-19,64.0
1984-12-20,64.0
1984-12-21,64.0
1984-12-22,64.0
1984-12-23,64.0
1984-12-24,64.0
1984-12-25,64.0
1984-12-26,64.0
1984-12-27,64.0252075
1984-12-28,32.0
1984-12-29,65.0
1984-12-30,65.0
1984-12-31,65.0
1985-01-01,65.0
1985-01-02,65.0
1985-01-03,65.0
1985-01-04,65.0
1985-01-05,65.0
1985-01-06,65.0
1985-01-07,65.0
1985-01-08,65.0
1985-01-09,65.0
1985-01-10,65.0
1985-01-11,65.0
1985-01-12,65.0
1985-01-13,65.0
1985-01-14,65.0
1985-01-15,160.000015
1985-01-16,68.0
1985-01-17,365.0
1985-01-18,405.0
1985-01-19,404.0
1985-01-20,404.0
1985-01-21,405.0
1985-01-22,362.0
1985-01-23,406.0
1985-01-24,399.0
1985-01-25,397.0
1985-01-26,394.0
1985-01-27,395.0
1985-01-28,394.0
1985-01-29,98.0
1985-01-30,70.0
1985-01-31,67.0
1985-02-01,67.0
1985-02-02,67.0
1985-02-03,67.0
1985-02-04,67.0
1985-02-05,67.0
1985-02-06,67.0
1985-02-07,67.0
1985-02-08,67.0
1985-02-09,67.0
1985-02-10,67.0
1985-02-11,67.0
1985-02-12,67.0
1985-02-13,67.0
1985-02-14,67.0
1985-02-15,67.0
1985-02-16,67.0
1985-02-17,67.0
1985-02-18,67.0
1985-02-19,67.0
1985-02-20,67.0
1985-02-21,67.0
1985-02-22,66.0
1985-02-23,73.0
1985-02-24,73.0
1985-02-25,73.0
1985-02-26,73.0
1985-02-27,65.0
1985-02-28,65.0
1985-03-01,65.0
1985-03-02,65.0
1985-03-03,65.0
1985-03-04,65.0
1985-03-05,67.0
1985-03-06,67.0
1985-03-07,67.0
1985-03-08,70.0
1985-03-09,70.0
1985-03-10,70.0
1985-03-11,70.0
1985-03-12,74.0
1985-03-13,68.0
1985-03-14,852.0
1985-03-15,1043.0
1985-03-16,1050.0
1985-03-17,1050.0
1985-03-18,975.0
1985-03-19,996.0
1985-03-20,999.0
1985-03-21,839.0
1985-03-22,824.0
1985-03-23,824.0
1985-03-24,824.0
1985-03-25,824.0
1985-03-26,671.0
1985-03-27,649.0
1985-03-28,1065.0
1985-03-29,1055.0
1985-03-30,716.0
1985-03-31,716.0
1985-04-01,712.0
1985-04-02,565.0
1985-04-03,868.0
1985-04-04,966.0
1985-04-05,2460.0
1985-04-06,1996.0
1985-04-07,2099.0
1985-04-08,2489.0
1985-04-09,2771.0
1985-04-10,2691.0
1985-04-11,2891.0
1985-04-12,2843.0
1985-04-13,2895.0
1985-04-14,2679.0
1985-04-15,2200.0
1985-04-16,3055.0
1985-04-17,3407.0
1985-04-18,2334.0
1985-04-19,2061.0
1985-04-20,1852.0
1985-04-21,1310.0
1985-04-22,999.0
1985-04-23,933.0
1985-04-24,663.0
1985-04-25,699.0
1985-04-26,699.0
1985-04-27,987.0
1985-04-28,999.0
1985-04-29,999.0
1985-04-30,399.0
1985-05-01,399.0
1985-05-02,1065.0
1985-05-03,1199.0
1985-05-04,1770.0
1985-05-05,3099.0
1985-05-06,3537.0
1985-05-07,3700.0
1985-05-08,3400.0
1985-05-09,3525.0
1985-05-10,2871.0
1985-05-11,2500.0
1985-05-12,2303.0
1985-05-13,2009.0
1985-05-14,1006.0
1985-05-15,999.0
1985-05-16,999.0
1985-05-17,999.0
1985-05-18,999.0
1985-05-19,999.0
1985-05-20,999.0
1985-05-21,916.0
1985-05-22,968.0
1985-05-23,999.0
1985-05-24,999.0
1985-05-25,999.0
1985-05-26,1391.0
1985-05-27,1400.0
1985-05-28,1883.0
1985-05-29,2256.0
1985-05-30,1938.0
1985-05-31,1662.0
1985-06-01,1604.0
1985-06-02,1505.0
1985-06-03,1376.0
1985-06-04,2000.0
1985-06-05,1823.0
1985-06-06,2504.0
1985-06-07,2645.0
1985-06-08,3562.0
1985-06-09,3027.0
1985-06-10,2983.0
1985-06-11,3105.0
1985-06-12,1966.0
1985-06-13,1843.0
1985-06-14,2000.0
1985-06-15,2000.0
1985-06-16,2000.0
1985-06-17,1941.0
1985-06-18,1312.0
1985-06-19,1312.0
1985-06-20,1174.0
1985-06-21,999.0
1985-06-22,999.0
1985-06-23,975.0
1985-06-24,709.0
1985-06-25,637.0
1985-06-26,649.0
1985-06-27,411.0
1985-06-28,187.0
1985-06-29,187.0
1985-06-30,187.0
1985-07-01,187.0
1985-07-02,187.0
1985-07-03,187.0
1985-07-04,187.0
1985-07-05,187.0
1985-07-06,187.0
1985-07-07,187.0
1985-07-08,187.0
1985-07-09,187.0
1985-07-10,187.0
1985-07-11,57.0
1985-07-12,57.0
1985-07-13,57.0
1985-07-14,57.0
1985-07-15,57.0
1985-07-16,57.0
1985-07-17,57.0
1985-07-18,57.0
1985-07-19,57.0
1985-07-20,57.0
1985-07-21,57.0
1985-07-22,57.0
1985-07-23,57.0
1985-07-24,57.0
1985-07-25,57.0
1985-07-26,57.0
1985-07-27,57.0
1985-07-28,57.0
1985-07-29,57.0
1985-07-30,57.0
1985-07-31,57.0
1985-08-01,58.0
1985-08-02,57.0
1985-08-03,57.0
1985-08-04,57.0
1985-08-05,57.0
1985-08-06,57.0
1985-08-07,57.0
1985-08-08,57.0
1985-08-09,57.0
1985-08-10,57.0
1985-08-11,57.0
1985-08-12,57.0
1985-08-13,57.0
1985-08-14,56.0000038
1985-08-15,55.0
1985-08-16,53.0
1985-08-17,52.0
1985-08-18,52.0
1985-08-19,52.0
1985-08-20,52.0
1985-08-21,52.0
1985-08-22,52.0
1985-08-23,52.0
1985-08-24,52.0
1985-08-25,52.0
1985-08-26,52.0
1985-08-27,54.0
1985-08-28,54.0
1985-08-29,54.0
1985-08-30,54.0
1985-08-31,54.0
1985-09-01,54.0
1985-09-02,52.0
1985-09-03,52.0
1985-09-04,52.0
1985-09-05,52.0
1985-09-06,56.0000038
1985-09-07,62.0
1985-09-08,56.0000038
1985-09-09,52.0
1985-09-10,52.0
1985-09-11,52.0
1985-09-12,52.0
1985-09-13,51.0
1985-09-14,51.0
1985-09-15,51.0
1985-09-16,51.0
1985-09-17,51.0
1985-09-18,51.0
1985-09-19,50.0
1985-09-20,51.0
1985-09-21,50.0
1985-09-22,50.0
1985-09-23,50.0
1985-09-24,50.0
1985-09-25,50.0
1985-09-26,50.0
1985-09-27,50.0
1985-09-28,50.0
1985-09-29,50.0
1985-09-30,50.0
1985-10-01,50.0
1985-10-02,50.0
1985-10-03,50.0
1985-10-04,50.0
1985-10-05,50.0
1985-10-06,50.0
1985-10-07,51.0
1985-10-08,51.0
1985-10-09,51.0
1985-10-10,51.0
1985-10-11,52.0
1985-10-12,51.0
1985-10-13,52.0
1985-10-14,51.0
1985-10-15,52.0
1985-10-16,52.0
1985-10-17,52.0
1985-10-18,52.0
1985-10-19,52.0
1985-10-20,52.0
1985-10-21,52.0
1985-10-22,52.0
1985-10-23,52.0
1985-10-24,51.0
1985-10-25,51.0
1985-10-26,51.0
1985-10-27,51.0
1985-10-28,51.0
1985-10-29,51.0
1985-10-30,51.0
1985-10-31,51.0
1985-11-01,51.0
1985-11-02,50.0
1985-11-03,50.0
1985-11-04,50.0
1985-11-05,50.0
1985-11-06,50.0
1985-11-07,50.0
1985-11-08,50.0
1985-11-09,50.0
1985-11-10,51.0
1985-11-11,50.0
1985-11-12,50.0
1985-11-13,50.0
1985-11-14,50.0
1985-11-15,50.0
1985-11-16,50.0
1985-11-17,50.0
1985-11-18,50.0
1985-11-19,51.0
1985-11-20,51.0
1985-11-21,51.0
1985-11-22,51.0
1985-11-23,51.0
1985-11-24,51.0
1985-11-25,51.0
1985-11-26,52.0
1985-11-27,51.0
1985-11-28,50.0
1985-11-29,51.0
1985-11-30,51.0
1985-12-01,50.0
1985-12-02,50.0
1985-12-03,50.0
1985-12-04,72.0
1985-12-05,100.0
1985-12-06,92.0
1985-12-07,100.0
1985-12-08,100.0
1985-12-09,100.0
1985-12-10,100.0
1985-12-11,90.0
1985-12-12,82.0
1985-12-13,77.0
1985-12-14,74.0
1985-12-15,74.0
1985-12-16,72.0
1985-12-17,73.0
1985-12-18,74.0
1985-12-19,74.0
1985-12-20,61.0
1985-12-21,51.0
1985-12-22,51.0
1985-12-23,51.0
1985-12-24,51.0
1985-12-25,51.0
1985-12-26,51.0
1985-12-27,51.0
1985-12-28,51.0
1985-12-29,51.0
1985-12-30,51.0
1985-12-31,51.0
1986-01-01,51.0
1986-01-02,50.0
1986-01-03,50.0
1986-01-04,50.0
1986-01-05,50.0
1986-01-06,51.0
1986-01-07,51.0
1986-01-08,52.0
1986-01-09,52.0
1986-01-10,52.0
1986-01-11,52.0
1986-01-12,52.0
1986-01-13,52.0
1986-01-14,53.0
1986-01-15,52.0
1986-01-16,50.0
1986-01-17,50.0
1986-01-18,50.0
1986-01-19,50.0
1986-01-20,50.0
1986-01-21,50.0
1986-01-22,50.0
1986-01-23,50.0
1986-01-24,51.0
1986-01-25,52.0
1986-01-26,53.0
1986-01-27,53.0
1986-01-28,52.0
1986-01-29,52.0
1986-01-30,52.0
1986-01-31,51.0
1986-02-01,49.0
1986-02-02,49.0
1986-02-03,49.0
1986-02-04,49.0
1986-02-05,49.0
1986-02-06,49.0
1986-02-07,49.0
1986-02-08,49.0
1986-02-09,49.0
1986-02-10,49.0
1986-02-11,49.0
1986-02-12,49.0
1986-02-13,50.0
1986-02-14,52.0
1986-02-15,55.0
1986-02-16,54.0
1986-02-17,52.0
1986-02-18,50.0
1986-02-19,50.0
1986-02-20,50.0
1986-02-21,50.0
1986-02-22,50.0
1986-02-23,50.0
1986-02-24,50.0
1986-02-25,50.0
1986-02-26,51.0
1986-02-27,51.0
1986-02-28,51.0
1986-03-01,50.0
1986-03-02,50.0
1986-03-03,50.0
1986-03-04,50.0
1986-03-05,50.0
1986-03-06,50.0
1986-03-07,50.0
1986-03-08,50.0
1986-03-09,50.0
1986-03-10,50.0
1986-03-11,50.0
1986-03-12,50.0
1986-03-13,52.0
1986-03-14,83.0
1986-03-15,83.0
1986-03-16,70.0
1986-03-17,50.0
1986-03-18,50.0
1986-03-19,50.0
1986-03-20,49.0
1986-03-21,49.0
1986-03-22,49.0
1986-03-23,49.0
1986-03-24,49.0
1986-03-25,51.0
1986-03-26,52.0
1986-03-27,52.0
1986-03-28,77.0
1986-03-29,124.0
1986-03-30,235.0
1986-03-31,597.0
1986-04-01,474.0
1986-04-02,1473.0
1986-04-03,2175.0
1986-04-04,1081.0
1986-04-05,600.0
1986-04-06,600.0
1986-04-07,600.0
1986-04-08,812.0
1986-04-09,1201.0
1986-04-10,1486.0
1986-04-11,1699.0
1986-04-12,1751.0
1986-04-13,1751.0
1986-04-14,1384.0
1986-04-15,1001.0
1986-04-16,1133.0
1986-04-17,1467.0
1986-04-18,1601.0
1986-04-19,1493.0
1986-04-20,1101.0
1986-04-21,1222.0
1986-04-22,2033.0
1986-04-23,2302.0
1986-04-24,2567.0
1986-04-25,2416.0
1986-04-26,1825.0
1986-04-27,1501.0
1986-04-28,1443.0
1986-04-29,1775.0
1986-04-30,2421.0
1986-05-01,2702.0
1986-05-02,3183.0
1986-05-03,3972.0
1986-05-04,4307.0
1986-05-05,4461.0
1986-05-06,3371.0
1986-05-07,2037.0
1986-05-08,1750.0
1986-05-09,1463.0
1986-05-10,1409.0
1986-05-11,1401.0
1986-05-12,1401.0
1986-05-13,1401.0
1986-05-14,1304.0
1986-05-15,1201.0
1986-05-16,1201.0
1986-05-17,1201.0
1986-05-18,1201.0
1986-05-19,1201.0
1986-05-20,1201.0
1986-05-21,1201.0
1986-05-22,1201.0
1986-05-23,1201.0
1986-05-24,1201.0
1986-05-25,1201.0
1986-05-26,1201.0
1986-05-27,1201.0
1986-05-28,1201.0
1986-05-29,1201.0
1986-05-30,1201.0
1986-05-31,1201.0
1986-06-01,1201.0
1986-06-02,1201.0
1986-06-03,1201.0
1986-06-04,1201.0
1986-06-05,1258.0
1986-06-06,1401.0
1986-06-07,2138.0
1986-06-08,2602.0
1986-06-09,2333.0
1986-06-10,1700.0
1986-06-11,1266.0
1986-06-12,1201.0
1986-06-13,1201.0
1986-06-14,1201.0
1986-06-15,1201.0
1986-06-16,1201.0
1986-06-17,1201.0
1986-06-18,1201.0
1986-06-19,1201.0
1986-06-20,1067.0
1986-06-21,1001.0
1986-06-22,858.0
1986-06-23,469.0
1986-06-24,475.0
1986-06-25,89.0
1986-06-26,89.0
1986-06-27,89.0
1986-06-28,128.0
1986-06-29,383.0
1986-06-30,501.0
1986-07-01,445.0
1986-07-02,228.0
1986-07-03,93.0
1986-07-04,100.0
1986-07-05,160.000015
1986-07-06,191.0
1986-07-07,191.0
1986-07-08,191.0
1986-07-09,344.0
1986-07-10,501.0
1986-07-11,392.0
1986-07-12,310.0
1986-07-13,221.0
1986-07-14,116.0
1986-07-15,81.0
1986-07-16,228.0
1986-07-17,307.0
1986-07-18,245.0
1986-07-19,181.0
1986-07-20,175.0
1986-07-21,175.0
1986-07-22,175.0
1986-07-23,363.0
1986-07-24,633.0
1986-07-25,466.0
1986-07-26,218.0
1986-07-27,174.0
1986-07-28,111.0
1986-07-29,77.0
1986-07-30,79.0
1986-07-31,79.0
1986-08-01,78.0
1986-08-02,78.0
1986-08-03,78.0
1986-08-04,79.0
1986-08-05,80.0000076
1986-08-06,80.0000076
1986-08-07,80.0000076
1986-08-08,80.0000076
1986-08-09,80.0000076
1986-08-10,80.0000076
1986-08-11,80.0000076
1986-08-12,80.0000076
1986-08-13,80.0000076
1986-08-14,80.0000076
1986-08-15,80.0000076
1986-08-16,81.0
1986-08-17,81.0
1986-08-18,80.0000076
1986-08-19,80.0000076
1986-08-20,80.0000076
1986-08-21,78.0
1986-08-22,78.0
1986-08-23,79.0
1986-08-24,79.0
1986-08-25,79.0
1986-08-26,79.0
1986-08-27,79.0
1986-08-28,78.0
1986-08-29,79.0
1986-08-30,79.0
1986-08-31,78.0
1986-09-01,78.0
1986-09-02,78.0
1986-09-03,78.0
1986-09-04,78.0
1986-09-05,77.0
1986-09-06,77.0
1986-09-07,77.0
1986-09-08,77.0
1986-09-09,78.0
1986-09-10,78.0
1986-09-11,78.0
1986-09-12,78.0
1986-09-13,78.0
1986-09-14,78.0
1986-09-15,78.0
1986-09-16,79.0
1986-09-17,81.0
1986-09-18,81.0
1986-09-19,81.0
1986-09-20,81.0
1986-09-21,81.0
1986-09-22,81.0
1986-09-23,60.0
1986-09-24,83.0
1986-09-25,83.0
1986-09-26,81.0
1986-09-27,81.0
1986-09-28,81.0
1986-09-29,80.0000076
1986-09-30,80.0000076
1986-10-01,80.0
1986-10-02,80.0
1986-10-03,81.0
1986-10-04,81.0
1986-10-05,81.0
1986-10-06,81.0
1986-10-07,81.0
1986-10-08,81.0
1986-10-09,81.0
1986-10-10,81.0
1986-10-11,81.0
1986-10-12,81.0
1986-10-13,81.0
1986-10-14,299.0
1986-10-15,423.0
1986-10-16,402.0
1986-10-17,401.0
1986-10-18,401.0
1986-10-19,401.0
1986-10-20,402.0
1986-10-21,402.0
1986-10-22,207.0
1986-10-23,229.0
1986-10-24,290.0
1986-10-25,279.0
1986-10-26,279.0
1986-10-27,252.0
1986-10-28,186.0
1986-10-29,178.0
1986-10-30,178.0
1986-10-31,164.0
1986-11-01,157.0
1986-11-02,156.0
1986-11-03,299.0
1986-11-04,442.0
1986-11-05,462.0
1986-11-06,462.0
1986-11-07,462.0
1986-11-08,462.0
1986-11-09,461.0
1986-11-10,247.0
1986-11-11,100.0
1986-11-12,100.0
1986-11-13,125.0
1986-11-14,147.0
1986-11-15,147.0
1986-11-16,147.0
1986-11-17,192.0
1986-11-18,220.0
1986-11-19,453.0
1986-11-20,505.0
1986-11-21,406.0
1986-11-22,522.0
1986-11-23,600.0
1986-11-24,600.0
1986-11-25,422.0
1986-11-26,313.0
1986-11-27,313.0
1986-11-28,313.0
1986-11-29,313.0
1986-11-30,313.0
1986-12-01,312.0
1986-12-02,313.0
1986-12-03,313.0
1986-12-04,313.0
1986-12-05,313.0
1986-12-06,313.0
1986-12-07,313.0
1986-12-08,313.0
1986-12-09,313.0
1986-12-10,226.0
1986-12-11,179.0
1986-12-12,179.0
1986-12-13,179.0
1986-12-14,179.0
1986-12-15,180.0
1986-12-16,180.0
1986-12-17,181.0
1986-12-18,179.0
1986-12-19,181.0
1986-12-20,181.0
1986-12-21,181.0
1986-12-22,181.0
1986-12-23,181.0
1986-12-24,181.0
1986-12-25,181.0
1986-12-26,182.0
1986-12-27,181.0
1986-12-28,181.0
1986-12-29,145.0
1986-12-30,122.0
1986-12-31,122.0
1987-01-01,122.0
1987-01-02,123.0
1987-01-03,123.0
1987-01-04,123.0
1987-01-05,123.0
1987-01-06,123.0
1987-01-07,123.0
1987-01-08,123.0
1987-01-09,123.0
1987-01-10,123.0
1987-01-11,123.0
1987-01-12,123.0
1987-01-13,124.0
1987-01-14,124.0
1987-01-15,125.0
1987-01-16,125.0
1987-01-17,125.0
1987-01-18,125.0
1987-01-19,125.0
1987-01-20,125.0
1987-01-21,125.0
1987-01-22,125.0
1987-01-23,125.0
1987-01-24,125.0
1987-01-25,125.0
1987-01-26,125.0
1987-01-27,125.0
1987-01-28,125.0
1987-01-29,125.0
1987-01-30,125.0
1987-01-31,125.0
1987-02-01,125.0
1987-02-02,125.0
1987-02-03,123.0
1987-02-04,125.0
1987-02-05,125.0
1987-02-06,125.0
1987-02-07,124.0
1987-02-08,124.0
1987-02-09,104.0
1987-02-10,74.0
1987-02-11,71.0
1987-02-12,76.0
1987-02-13,99.0
1987-02-14,128.0
1987-02-15,128.0
1987-02-16,160.0
1987-02-17,178.0
1987-02-18,178.0
1987-02-19,178.0
1987-02-20,183.0
1987-02-21,183.0
1987-02-22,183.0
1987-02-23,183.0
1987-02-24,147.0
1987-02-25,125.0
1987-02-26,149.0
1987-02-27,164.0
1987-02-28,163.0
1987-03-01,163.0
1987-03-02,146.0
1987-03-03,125.0
1987-03-04,126.0
1987-03-05,126.0
1987-03-06,158.0
1987-03-07,197.0
1987-03-08,311.0
1987-03-09,466.0
1987-03-10,600.0
1987-03-11,501.0
1987-03-12,447.0
1987-03-13,445.0
1987-03-14,445.0
1987-03-15,445.0
1987-03-16,541.0
1987-03-17,500.0
1987-03-18,444.0
1987-03-19,444.0
1987-03-20,445.0
1987-03-21,445.0
1987-03-22,445.0
1987-03-23,446.0
1987-03-24,446.0
1987-03-25,324.0
1987-03-26,248.0
1987-03-27,176.0
1987-03-28,124.0
1987-03-29,124.0
1987-03-30,124.0
1987-03-31,124.0
1987-04-01,74.0
1987-04-02,172.0
1987-04-03,238.0
1987-04-04,639.0
1987-04-05,835.0
1987-04-06,801.0
1987-04-07,801.0
1987-04-08,801.0
1987-04-09,1172.0
1987-04-10,2018.0
1987-04-11,2631.0
1987-04-12,2319.0
1987-04-13,1500.0
1987-04-14,1251.0
1987-04-15,1251.0
1987-04-16,1521.0
1987-04-17,2147.0
1987-04-18,2502.0
1987-04-19,2221.0
1987-04-20,1784.0
1987-04-21,1652.0
1987-04-22,1652.0
1987-04-23,1950.0
1987-04-24,2367.0
1987-04-25,2225.0
1987-04-26,2102.0
1987-04-27,2102.0
1987-04-28,2102.0
1987-04-29,2112.0
1987-04-30,2002.0
1987-05-01,2002.0
1987-05-02,2002.0
1987-05-03,2002.0
1987-05-04,2002.0
1987-05-05,2002.0
1987-05-06,2002.0
1987-05-07,2002.0
1987-05-08,2002.0
1987-05-09,2002.0
1987-05-10,2002.0
1987-05-11,2002.0
1987-05-12,2002.0
1987-05-13,2002.0
1987-05-14,2002.0
1987-05-15,2002.0
1987-05-16,2002.0
1987-05-17,2275.0
1987-05-18,2402.0
1987-05-19,2402.0
1987-05-20,3324.0
1987-05-21,2002.0
1987-05-22,2002.0
1987-05-23,2002.0
1987-05-24,2002.0
1987-05-25,2002.0
1987-05-26,1529.0
1987-05-27,1201.0
1987-05-28,1206.0
1987-05-29,1201.0
1987-05-30,1201.0
1987-05-31,1201.0
1987-06-01,1201.0
1987-06-02,1201.0
1987-06-03,1201.0
1987-06-04,1201.0
1987-06-05,1201.0
1987-06-06,1201.0
1987-06-07,1201.0
1987-06-08,1201.0
1987-06-09,1201.0
1987-06-10,1679.0
1987-06-11,2002.0
1987-06-12,1721.0
1987-06-13,1601.0
1987-06-14,1601.0
1987-06-15,1689.0
1987-06-16,1802.0
1987-06-17,1802.0
1987-06-18,1529.0
1987-06-19,1300.0
1987-06-20,1201.0
1987-06-21,1201.0
1987-06-22,1132.0
1987-06-23,1101.0
1987-06-24,1033.0
1987-06-25,1001.0
1987-06-26,1001.0
1987-06-27,961.0
1987-06-28,901.0
1987-06-29,714.0
1987-06-30,500.0
1987-07-01,269.0
1987-07-02,185.0
1987-07-03,184.0
1987-07-04,186.0
1987-07-05,187.0
1987-07-06,189.0
1987-07-07,187.0
1987-07-08,188.0
1987-07-09,191.0
1987-07-10,192.0
1987-07-11,191.0
1987-07-12,192.0
1987-07-13,192.0
1987-07-14,195.0
1987-07-15,193.0
1987-07-16,192.0
1987-07-17,191.0
1987-07-18,191.0
1987-07-19,192.0
1987-07-20,195.0
1987-07-21,193.0
1987-07-22,195.0
1987-07-23,194.0
1987-07-24,193.0
1987-07-25,193.0
1987-07-26,192.0
1987-07-27,195.0
1987-07-28,195.0
1987-07-29,192.0
1987-07-30,194.0
1987-07-31,190.0
1987-08-01,192.0
1987-08-02,192.0
1987-08-03,192.0
1987-08-04,192.0
1987-08-05,192.0
1987-08-06,194.0
1987-08-07,192.0
1987-08-08,189.0
1987-08-09,189.0
1987-08-10,194.0
1987-08-11,192.0
1987-08-12,188.0
1987-08-13,181.0
1987-08-14,185.0
1987-08-15,184.0
1987-08-16,185.0
1987-08-17,183.0
1987-08-18,181.0
1987-08-19,184.0
1987-08-20,179.0
1987-08-21,181.0
1987-08-22,180.0
1987-08-23,176.0
1987-08-24,174.0
1987-08-25,176.0
1987-08-26,179.0
1987-08-27,179.0
1987-08-28,176.0
1987-08-29,176.0
1987-08-30,180.0
1987-08-31,177.0
1987-09-01,180.0
1987-09-02,177.0
1987-09-03,179.0
1987-09-04,177.0
1987-09-05,178.0
1987-09-06,177.0
1987-09-07,178.0
1987-09-08,175.0
1987-09-09,176.0
1987-09-10,174.0
1987-09-11,176.0
1987-09-12,179.0
1987-09-13,181.0
1987-09-14,120.0
1987-09-15,62.0
1987-09-16,46.0
1987-09-17,46.0
1987-09-18,47.0
1987-09-19,47.0
1987-09-20,46.0
1987-09-21,47.0
1987-09-22,46.0
1987-09-23,47.0
1987-09-24,47.0
1987-09-25,46.0
1987-09-26,46.0
1987-09-27,47.0
1987-09-28,64.0
1987-09-29,77.0
1987-09-30,80.0
1987-10-01,78.0
1987-10-02,78.0
1987-10-03,77.0
1987-10-04,77.0
1987-10-05,77.0
1987-10-06,77.0
1987-10-07,77.0
1987-10-08,77.0
1987-10-09,77.0
1987-10-10,78.0
1987-10-11,77.0
1987-10-12,76.0
1987-10-13,77.0
1987-10-14,77.0
1987-10-15,70.0
1987-10-16,77.0
1987-10-17,77.0
1987-10-18,76.0
1987-10-19,77.0
1987-10-20,76.0
1987-10-21,77.0
1987-10-22,76.0
1987-10-23,76.0
1987-10-24,75.0
1987-10-25,76.0
1987-10-26,76.0
1987-10-27,76.0
1987-10-28,76.0
1987-10-29,75.0
1987-10-30,75.0
1987-10-31,74.0
1987-11-01,73.0
1987-11-02,74.0
1987-11-03,78.0
1987-11-04,82.0
1987-11-05,82.0
1987-11-06,81.0
1987-11-07,81.0
1987-11-08,81.0
1987-11-09,81.0
1987-11-10,80.0000076
1987-11-11,80.0000076
1987-11-12,81.0
1987-11-13,80.0000076
1987-11-14,80.0000076
1987-11-15,79.0
1987-11-16,79.0
1987-11-17,79.0
1987-11-18,79.0
1987-11-19,79.0
1987-11-20,80.0000076
1987-11-21,80.0000076
1987-11-22,82.0
1987-11-23,83.0
1987-11-24,78.0
1987-11-25,77.0
1987-11-26,77.0
1987-11-27,77.0
1987-11-28,78.0
1987-11-29,80.0000076
1987-11-30,81.0
1987-12-01,81.0
1987-12-02,80.0000076
1987-12-03,80.0000076
1987-12-04,80.0000076
1987-12-05,80.0000076
1987-12-06,80.0000076
1987-12-07,74.0
1987-12-08,75.0
1987-12-09,79.0
1987-12-10,77.0
1987-12-11,80.0000076
1987-12-12,79.0
1987-12-13,79.0
1987-12-14,80.0000076
1987-12-15,80.0000076
1987-12-16,80.0000076
1987-12-17,80.0000076
1987-12-18,81.0
1987-12-19,80.0000076
1987-12-20,81.0
1987-12-21,74.0
1987-12-22,79.0
1987-12-23,79.0
1987-12-24,78.0
1987-12-25,78.0
1987-12-26,80.0000076
1987-12-27,79.0
1987-12-28,79.0
1987-12-29,76.0
1987-12-30,79.0
1987-12-31,80.0000076
1988-01-01,79.0
1988-01-02,79.0
1988-01-03,79.0
1988-01-04,79.0
1988-01-05,74.0
1988-01-06,75.0
1988-01-07,75.0
1988-01-08,75.0
1988-01-09,75.0
1988-01-10,75.0
1988-01-11,76.0
1988-01-12,76.0
1988-01-13,78.0
1988-01-14,78.0
1988-01-15,78.0
1988-01-16,78.0
1988-01-17,78.0
1988-01-18,78.0
1988-01-19,78.0
1988-01-20,78.0
1988-01-21,78.0
1988-01-22,78.0
1988-01-23,78.0
1988-01-24,78.0
1988-01-25,78.0
1988-01-26,79.0
1988-01-27,81.0
1988-01-28,81.0
1988-01-29,81.0
1988-01-30,79.0
1988-01-31,79.0
1988-02-01,79.0
1988-02-02,79.0
1988-02-03,79.0
1988-02-04,79.0
1988-02-05,79.0
1988-02-06,79.0
1988-02-07,79.0
1988-02-08,78.0
1988-02-09,77.0